Location: Unspecified
(48.2082°N, 0.0000°E)
Time: 04:31:22
(UTC+00:00)

Transit 4A - Pass Details

Date: 17 June 2019
Orbit: 863 x 981 km, 66.8° (Epoch: 17 August)

Event Time Altitude Azimuth Distance (km) Brightness Sun altitude
Rises 08:14:12 0° 175° (S) 3,594 11.1 39.2°
Reaches altitude 10° 08:17:04 10° 164° (SSE) 2,672 10.7 39.7°
Maximum altitude 08:22:12 28° 108° (ESE) 1,745 11.4 40.5°
Drops below altitude 10° 08:27:27 10° 53° (NE) 2,733 11.0 41.4°
Sets 08:30:24 0° 42° (NE) 3,691 11.3 41.9°
